HST, 20580

Orbit data source: Space-Track

The Hubble Space Telescope is a large observatory located in Earth's orbit that has transformed the field of astronomy. Launched in 1990, Hubble has made significant contributions to all domains of astronomy, such as determining the universe's age, the existence of dark energy, and the rate of its expansion. The telescope’s high-resolution images provide detailed and precise views of distant galaxies, nebulae, and star clusters, establishing it as one of the most important telescopes in the history of astronomy.

Not visible in the next 10 days
Identifier
20580, 1990-037B
Orbit
LEO
Country
Flag of USUS
Related business
Manufacturer
LMSC
Mission
Operational Civil Astronomy
Bus & Motor
HST, Unknown motor
Mass
10,843 kg wet, 7,547 kg dry
Launch date (UTC)
1990-04-24 (36 years ago)
Launch vehicle
SPACE SHUTTLE
Launch site
Air Force Eastern Test Range (AFETR)
Object type
Payload
Rocket body
Debris
Shape & HBR
Cyl + 2 Pan, 8.4 m
Radar Cross Section
51.502 m², Large (>1 m²)

Expand to show TLE details & history
Last TLE update: 17 hours ago

TLE from 17 hours ago
0 HST
1 20580U 90037B   26171.07700591  .00005529  00000-0  17304-3 0  9999
2 20580  28.4722  60.8244 0001640 173.2571 186.8048 15.30775367789017
Epoch: 2026-06-20T01:50Z
TLE epoch observation values (Epoch: 2026-06-20T01:50:53.310Z)
Latitude
0.00002°
Longitude
124.8055°
Altitude
472.866 km
Speed
7.632 km/s
True Right ascension
04h 03m 17s
True Declination
0° 00' 00"
Sunlit
Object was in daylight at epoch
Visualization orbit readout
Latitude
Unknown
Longitude
Unknown
Altitude
Unknown
Speed
Unknown
Apparent Right ascension
Unknown
Apparent Declination
Unknown
Sunlit
N/A
Visualization observer readout
Local Sidereal Time
05:48:23
Azimuth
Unknown
Elevation
Unknown
Doppler factor
Unknown
Orbital elements
Apogee altitude
478.865 km
Perigee altitude
476.616 km
Semi-major axis
6,855.877 km
Eccentricity
0.00016
Inclination
28.4722°
RAAN
60.8244°
Arg. of periapsis
173.2571°
True anomaly
186.80257°
Mean anomaly
186.8048°
Eccentric anomaly
186.80369°
Mean motion
3.82339 °/min
Orbital period
94.16 mins
BSTAR
0.00017304
Loading maneuver chart data...
Computing Atmospheric mass density...
Loading historical data...
Loading historical data...
Loading historical data...
Loading historical data...
Loading historical data...
Loading historical data...
Loading historical data...
Other satellites on launch #37 in the year 1990 (1990-04-24 UTC)

Documentation

Showing up to 5 results
|